Wind_Speed
10 9 8 7 6 5 5 5 5 3 2 1 2 5 11 19 22 20 16 9 9 9 10 11 5 2 5 8 7 8 6 6 2 2 2 5 6 6 8 8 8 7 8 8 11
10 9 7 6 6 5 5 5 5 4 3 2 2 6 11 19 20 17 13 10 10 10 11 12 5 2 8 3 4 3 4 1 6 8 2 7 13 14 12 10 11 9 10 13 13
9 9 7 6 6 6 6 5 6 5 3 1 2 7 13 18 18 14 10 8 9 11 14 8 1 7 9 7 4 2 6 2 2 3 2 11 17 19 19 16 17 16 13 13 15
9 9 6 5 5 5 6 6 6 5 3 0 4 9 18 20 13 13 10 10 11 13 9 7 11 12 9 5 4 8 8 5 2 3 6 7 7 14 18 18 17 13 15 16 16
8 9 6 3 4 4 5 5 6 5 2 2 7 14 21 18 13 12 11 8 11 10 8 5 12 13 3 4 4 8 12 5 4 6 8 10 11 11 16 16 15 15 16 21 29
8 8 6 2 3 4 5 6 5 4 1 3 11 19 22 16 13 13 13 12 11 8 8 7 10 12 9 9 13 17 14 9 11 9 14 14 13 15 15 13 18 18 19 21 26
8 8 7 3 1 2 4 5 5 4 1 6 14 23 19 12 11 14 14 14 11 12 5 7 9 14 12 7 12 11 5 3 9 14 19 12 14 13 8 12 16 23 24 19 19
8 8 8 5 2 1 3 3 4 3 2 8 17 21 13 11 13 17 15 12 8 9 4 2 4 6 9 4 12 8 8 7 11 15 23 19 14 12 10 10 13 22 15 14 19
8 8 7 6 2 1 2 4 5 5 5 7 18 17 12 9 13 16 14 11 9 6 3 1 3 5 9 8 11 6 13 9 10 15 24 21 17 19 17 17 17 10 17 17 15
7 8 7 6 2 5 6 5 6 5 5 9 16 15 8 11 11 16 13 9 9 6 4 3 7 7 2 6 10 14 16 16 17 21 20 22 21 16 7 7 4 9 16 9 4
7 8 8 6 2 8 7 3 4 5 2 9 15 10 12 11 10 18 14 11 8 9 7 6 4 8 2 7 12 10 16 16 15 21 16 13 13 8 4 4 4 8 8 5 11
7 8 8 7 2 10 8 1 3 3 1 5 16 21 18 14 11 17 14 11 7 10 8 11 9 4 10 9 19 19 12 15 17 21 15 16 11 9 8 4 5 7 7 7 11
8 7 7 7 3 13 10 6 4 6 4 3 8 19 14 11 13 12 16 16 9 8 10 14 11 10 15 9 14 4 15 23 22 21 21 19 13 12 6 6 7 3 6 10 14
8 6 6 5 5 15 15 7 3 6 3 5 4 10 17 14 13 13 16 13 16 17 10 10 7 13 17 16 13 21 17 20 26 22 20 14 8 12 6 6 4 4 9 6 12
9 6 6 4 7 15 13 10 3 3 2 2 3 6 9 12 3 13 10 11 14 17 19 21 16 21 20 24 27 27 26 23 21 21 21 13 7 9 10 9 7 8 5 7 12
10 7 5 5 8 13 13 9 3 1 4 4 4 4 7 8 4 3 8 11 14 17 22 26 25 26 25 28 23 12 17 14 16 16 6 9 8 9 13 9 8 6 7 10 11
10 7 6 7 10 12 10 9 3 1 4 12 6 9 7 3 5 5 11 13 13 18 23 23 24 25 23 13 11 10 11 5 6 4 8 9 9 15 11 14 13 7 9 8 9
10 7 7 8 7 12 10 12 3 7 13 10 13 6 5 3 4 6 12 11 13 9 10 9 11 8 9 13 10 9 13 8 6 5 6 10 9 11 13 17 14 10 5 6 10
8 6 5 6 8 12 12 13 3 6 9 7 4 3 5 1 4 4 4 7 8 3 4 4 4 7 6 8 12 13 14 15 6 5 2 7 14 19 19 15 17 14 12 8 10
4 2 2 5 8 12 14 15 8 8 7 5 4 4 5 3 4 7 5 5 12 9 12 7 5 8 8 9 14 14 14 8 7 3 4 5 10 17 13 12 12 14 14 9 14
5 9 9 9 4 7 12 16 13 2 10 6 4 6 0 2 5 8 5 11 11 13 14 13 12 11 16 14 16 14 16 18 11 5 4 2 9 18 20 21 17 15 12 13 18
6 9 7 6 3 1 2 6 6 7 1 3 4 4 2 3 5 6 9 12 12 13 13 15 14 12 16 20 15 16 13 12 5 6 7 6 22 23 11 15 17 14 13 15 17
8 8 6 5 3 1 5 7 3 13 2 3 2 1 2 5 4 8 10 11 9 11 8 13 11 11 11 13 13 16 14 14 16 19 19 7 11 11 12 16 19 18 15 15 19
11 6 5 4 3 2 3 5 2 8 9 5 5 2 4 8 12 11 17 18 20 15 19 22 23 23 23 20 14 18 19 19 20 15 13 20 23 19 20 19 20 20 16 16 23
10 6 6 6 4 2 1 3 2 7 4 3 5 8 11 13 16 16 20 28 24 21 18 19 19 19 19 19 21 22 20 15 21 23 16 21 20 19 16 20 21 19 15 19 24
7 7 7 9 2 7 8 7 6 5 2 5 8 8 12 13 13 20 27 20 18 14 11 14 15 18 21 21 20 20 19 16 17 17 22 23 27 21 13 20 22 16 15 20 22
5 8 7 10 6 3 7 6 3 2 5 4 4 7 8 13 19 23 22 17 14 11 10 12 14 14 18 15 13 8 7 9 15 15 13 21 9 7 6 12 12 12 16 19 21
Wind_Direction
14 11 10 6 9 10 14 19 25 26 33 69 148 174 170 169 167 165 150 158 152 157 161 152 141 124 359 343 321 339 325 354 320 159 244 221 241 288 272 309 333 335 1 2 3
15 11 7 13 12 13 13 11 14 16 6 26 142 164 167 166 165 151 154 144 146 151 147 164 169 353 4 359 288 342 336 301 118 185 65 211 248 280 290 307 331 352 346 342 344
16 12 12 20 24 18 14 14 8 2 2 357 154 154 158 158 154 150 153 151 147 152 162 157 112 3 349 253 255 46 357 344 18 217 217 297 253 243 269 283 325 320 334 327 327
13 12 19 25 23 17 10 7 9 2 6 73 152 150 151 150 152 157 150 150 154 166 183 105 32 9 1 293 300 323 347 302 268 327 299 284 257 245 262 285 307 303 302 306 295
9 12 14 23 15 14 7 2 4 4 8 148 152 150 150 139 143 158 146 155 165 174 163 70 40 14 26 353 323 7 349 350 325 296 307 293 278 278 263 277 285 286 293 300 325
4 8 7 359 3 9 13 8 8 8 7 164 152 150 142 139 146 165 162 158 167 169 133 58 39 20 5 3 350 330 320 296 296 305 306 305 283 286 291 300 295 295 297 313 324
358 358 1 345 299 343 357 4 11 22 112 165 159 149 145 142 149 167 168 165 162 156 118 54 25 24 12 358 352 354 350 335 338 355 349 342 308 292 272 284 295 304 300 321 326
352 349 352 343 260 290 359 25 32 50 119 167 164 153 146 156 162 164 165 160 150 182 151 100 30 15 2 300 338 348 328 308 2 351 345 327 340 313 289 289 313 314 318 319 316
342 341 344 343 261 183 93 85 75 84 108 158 168 164 164 148 143 152 156 151 139 129 129 132 6 13 331 339 353 336 341 341 346 3 345 351 331 319 312 309 317 307 308 313 313
328 332 336 337 251 166 143 96 68 47 124 146 178 177 195 133 153 151 157 164 179 190 175 308 324 335 340 358 351 338 343 331 325 346 346 337 325 312 347 3 325 276 293 305 300
316 323 329 332 228 175 164 127 21 20 224 162 163 180 160 177 181 164 177 188 197 220 238 276 292 324 299 337 339 328 317 327 318 335 338 309 296 289 248 277 200 256 257 31 50
309 314 323 326 232 178 179 207 327 359 356 190 180 167 170 176 184 159 189 187 200 229 253 276 287 288 314 314 313 292 296 296 326 315 326 323 278 255 268 299 196 229 267 3 17
305 304 315 322 199 178 181 226 320 9 6 227 196 185 182 202 198 189 221 218 220 241 255 256 268 295 286 314 340 314 290 296 290 297 296 297 243 267 278 173 190 215 323 338 354
301 292 305 312 191 183 202 226 285 7 75 87 96 180 205 207 214 199 213 225 236 254 273 269 272 266 285 258 315 299 304 307 303 293 302 282 263 256 218 179 181 247 314 332 344
297 276 288 280 200 191 201 221 215 84 46 117 121 140 196 195 181 212 217 228 248 254 260 271 281 282 280 285 299 294 305 305 311 298 303 266 245 241 212 203 228 279 307 318 334
298 264 267 253 214 198 202 215 194 41 25 2 245 196 184 212 216 201 215 240 266 271 277 275 271 278 285 292 288 287 296 296 311 305 261 264 250 262 253 221 221 257 298 292 315
296 260 256 237 218 203 205 209 210 26 41 19 241 231 210 246 305 225 214 236 277 284 276 275 271 286 281 263 282 263 258 291 271 258 234 231 255 260 263 236 240 259 277 259 302
293 252 250 234 217 198 205 198 217 89 43 57 78 94 176 119 333 260 249 258 290 295 306 296 296 282 269 298 288 271 254 227 227 210 235 227 245 272 232 249 238 253 254 256 299
289 255 243 222 204 199 208 199 178 102 13 46 63 17 54 185 72 71 351 348 338 304 313 274 244 271 299 301 298 283 253 263 251 238 263 234 259 265 254 255 243 260 241 257 300
292 200 177 197 196 196 212 208 192 63 35 31 52 36 33 20 6 354 326 302 319 303 314 296 260 281 290 305 299 285 277 248 242 174 256 271 265 253 255 266 262 239 245 273 312
154 134 107 101 138 210 225 218 203 302 349 328 319 304 191 13 349 351 312 315 301 290 279 283 279 277 294 292 303 297 263 266 267 232 199 273 266 298 292 274 264 241 262 293 300
159 178 140 119 119 69 246 251 249 16 96 256 271 210 349 356 6 345 312 316 301 270 259 270 278 273 303 303 295 273 269 270 243 281 249 263 281 293 268 250 249 258 276 289 303
170 178 164 133 92 72 216 159 78 31 30 237 204 121 339 325 324 329 336 334 331 287 279 295 290 287 289 295 253 250 269 261 257 260 262 234 272 288 264 258 252 259 276 291 303
187 189 187 106 95 350 205 146 46 72 72 93 118 211 285 340 333 326 320 326 325 292 285 285 282 277 270 280 255 261 275 274 273 247 256 264 283 279 278 259 251 262 277 297 303
210 184 187 179 121 31 133 3 5 101 98 327 334 328 331 328 322 332 332 328 324 311 288 270 272 270 276 279 272 274 271 254 263 256 268 291 286 296 280 264 252 262 280 301 311
219 187 193 194 175 115 117 80 115 96 81 33 345 354 342 333 332 333 333 329 328 324 304 275 267 279 276 277 272 267 273 265 259 251 263 282 292 283 249 237 247 267 291 306 314
258 205 212 201 218 132 141 102 142 128 35 353 347 326 317 323 331 331 326 322 303 285 292 293 292 294 283 280 296 269 261 258 238 261 261 260 283 224 265 263 262 276 289 302 309
Height
3172 3170 3168 3167 3166 3166 3165 3165 3165 3164 3164 3165 3165 3167 3169 3172 3176 3179 3182 3186 3186 3188 3189 3190 3190 3190 3190 3189 3188 3186 3188 3186 3185 3185 3186 3185 3184 3185 3186 3186 3187 3187 3187 3187 3185
3173 3171 3169 3168 3167 3167 3166 3165 3165 3165 3164 3165 3165 3167 3170 3173 3177 3181 3184 3185 3187 3189 3190 3191 3191 3191 3190 3188 3187 3187 3187 3185 3185 3186 3186 3186 3187 3186 3187 3187 3188 3187 3186 3184 3185
3173 3171 3169 3168 3167 3167 3167 3166 3165 3165 3165 3165 3166 3167 3170 3175 3179 3182 3184 3186 3187 3189 3190 3192 3192 3192 3190 3189 3188 3187 3189 3186 3187 3188 3187 3186 3185 3186 3186 3186 3186 3185 3185 3183 3183
3173 3171 3170 3169 3168 3167 3167 3166 3166 3165 3165 3166 3166 3168 3171 3175 3182 3182 3184 3186 3187 3189 3191 3193 3192 3190 3189 3188 3188 3188 3188 3188 3187 3187 3185 3185 3184 3184 3183 3186 3185 3185 3183 3181 3178
3173 3172 3170 3170 3169 3168 3167 3166 3166 3165 3165 3165 3167 3169 3173 3177 3180 3182 3184 3186 3188 3189 3192 3193 3191 3190 3189 3189 3189 3189 3189 3188 3187 3185 3185 3184 3182 3183 3183 3184 3183 3181 3179 3178 3178
3173 3172 3170 3169 3169 3168 3167 3166 3166 3165 3165 3165 3167 3170 3174 3178 3179 3181 3183 3185 3188 3189 3192 3192 3191 3190 3188 3188 3188 3188 3187 3186 3186 3185 3183 3183 3182 3181 3182 3181 3179 3179 3177 3178 3175
3173 3171 3170 3169 3169 3168 3167 3166 3166 3165 3165 3166 3168 3172 3175 3178 3179 3181 3184 3184 3187 3190 3191 3191 3190 3191 3189 3189 3189 3187 3186 3185 3184 3184 3181 3181 3180 3179 3178 3177 3178 3176 3175 3176 3173
3173 3171 3170 3169 3168 3168 3168 3167 3166 3165 3165 3166 3169 3173 3176 3177 3179 3180 3183 3185 3187 3189 3191 3191 3190 3190 3190 3189 3188 3186 3185 3184 3184 3183 3179 3179 3177 3176 3176 3176 3176 3174 3173 3172 3170
3172 3171 3169 3168 3168 3168 3168 3167 3166 3165 3166 3167 3171 3174 3176 3178 3179 3181 3183 3186 3186 3188 3190 3190 3190 3189 3190 3189 3187 3186 3185 3184 3183 3181 3178 3176 3175 3174 3174 3174 3174 3172 3170 3168 3166
3172 3170 3169 3168 3167 3168 3168 3168 3167 3167 3167 3167 3170 3177 3177 3178 3179 3181 3183 3185 3186 3187 3188 3188 3188 3189 3189 3188 3187 3185 3184 3183 3181 3180 3177 3175 3175 3173 3172 3173 3170 3170 3168 3168 3166
3171 3170 3169 3167 3167 3167 3169 3169 3171 3170 3167 3168 3170 3173 3175 3177 3178 3180 3182 3183 3184 3185 3186 3187 3187 3187 3187 3187 3186 3184 3183 3181 3179 3178 3177 3175 3174 3173 3173 3172 3171 3169 3167 3166 3165
3171 3169 3168 3167 3166 3167 3168 3168 3167 3168 3167 3167 3169 3170 3172 3175 3178 3179 3181 3182 3182 3183 3185 3186 3185 3186 3185 3184 3183 3182 3181 3178 3177 3175 3176 3174 3172 3171 3170 3169 3168 3166 3165 3164 3162
3169 3168 3167 3166 3165 3167 3167 3167 3167 3167 3166 3167 3169 3172 3174 3176 3177 3178 3180 3180 3181 3182 3182 3183 3184 3183 3182 3183 3180 3178 3179 3177 3177 3176 3174 3171 3170 3169 3168 3166 3164 3163 3162 3162 3159
3168 3167 3166 3165 3167 3166 3166 3167 3167 3167 3167 3170 3169 3171 3172 3174 3175 3177 3177 3180 3179 3180 3181 3182 3180 3180 3180 3180 3179 3177 3177 3175 3173 3172 3170 3169 3166 3165 3164 3163 3163 3160 3159 3158 3156
3166 3165 3165 3164 3164 3165 3168 3167 3168 3169 3169 3171 3169 3169 3170 3173 3174 3175 3177 3177 3177 3177 3181 3177 3177 3176 3176 3175 3175 3174 3172 3171 3168 3167 3166 3165 3164 3160 3161 3161 3160 3155 3155 3155 3153
3164 3163 3164 3164 3164 3165 3166 3167 3170 3171 3169 3169 3169 3169 3170 3171 3173 3174 3175 3176 3176 3175 3175 3172 3174 3174 3172 3172 3170 3169 3167 3167 3166 3165 3164 3161 3160 3157 3156 3156 3155 3153 3152 3151 3150
3162 3162 3162 3162 3162 3164 3166 3169 3171 3169 3170 3169 3168 3169 3170 3171 3172 3172 3173 3173 3173 3172 3170 3168 3168 3169 3168 3167 3165 3165 3163 3163 3164 3162 3159 3157 3156 3151 3151 3149 3150 3150 3148 3149 3149
3159 3159 3159 3160 3161 3163 3166 3170 3170 3170 3170 3169 3168 3168 3171 3170 3169 3169 3170 3171 3170 3168 3166 3165 3166 3166 3165 3164 3163 3161 3160 3160 3161 3160 3154 3153 3149 3146 3147 3145 3147 3146 3147 3147 3148
3158 3158 3158 3159 3160 3162 3166 3167 3167 3168 3170 3169 3169 3169 3169 3169 3169 3168 3168 3168 3166 3166 3166 3164 3163 3163 3162 3162 3161 3160 3158 3156 3152 3153 3153 3146 3143 3144 3142 3142 3143 3143 3145 3147 3146
3157 3156 3156 3157 3159 3161 3164 3164 3166 3167 3166 3167 3167 3168 3168 3168 3167 3166 3166 3166 3164 3162 3161 3160 3160 3160 3159 3158 3156 3155 3154 3153 3151 3153 3152 3143 3140 3138 3138 3138 3139 3139 3142 3145 3144
3157 3157 3157 3157 3159 3160 3161 3162 3164 3166 3167 3167 3166 3166 3165 3165 3166 3165 3165 3164 3161 3160 3158 3157 3157 3157 3155 3154 3153 3151 3149 3149 3149 3148 3145 3145 3137 3137 3136 3136 3136 3138 3140 3141 3141
3156 3157 3157 3156 3159 3159 3160 3161 3163 3163 3163 3164 3164 3164 3164 3163 3163 3163 3162 3160 3158 3157 3155 3155 3153 3151 3150 3148 3146 3145 3144 3145 3145 3146 3143 3141 3134 3133 3133 3134 3134 3136 3137 3139 3138
3155 3156 3156 3156 3158 3158 3158 3159 3161 3161 3159 3161 3162 3162 3162 3162 3162 3160 3159 3157 3156 3155 3153 3152 3150 3147 3144 3145 3142 3141 3141 3141 3139 3141 3139 3140 3133 3131 3131 3131 3132 3133 3134 3135 3135
3155 3155 3156 3156 3156 3156 3157 3159 3159 3160 3159 3159 3160 3160 3160 3160 3159 3158 3156 3154 3152 3152 3150 3147 3145 3144 3141 3139 3138 3136 3136 3135 3136 3134 3131 3130 3129 3130 3129 3128 3129 3131 3132 3132 3132
3153 3154 3155 3156 3157 3157 3157 3157 3157 3158 3158 3158 3157 3157 3157 3157 3156 3154 3151 3149 3146 3142 3141 3140 3137 3136 3134 3132 3130 3129 3129 3129 3129 3129 3127 3126 3126 3126 3126 3126 3128 3130 3130 3130 3129
3152 3153 3154 3155 3156 3156 3156 3156 3156 3157 3156 3157 3156 3155 3155 3155 3154 3150 3147 3143 3142 3139 3138 3136 3134 3131 3128 3127 3126 3125 3125 3124 3125 3124 3122 3122 3121 3122 3124 3126 3126 3128 3129 3128 3126
3150 3151 3152 3153 3154 3155 3155 3154 3154 3154 3155 3155 3155 3155 3154 3153 3150 3147 3143 3141 3138 3136 3135 3134 3132 3130 3125 3124 3123 3122 3120 3118 3119 3119 3120 3121 3122 3122 3125 3125 3127 3128 3127 3127 3125